Miyako, Japan

7:42 AM JST on August 30, 2016 (GMT +0900)
Miyako

Weather History for ROMY - May, 2013

Change the Weather History Date:

Wednesday, May 8, 2013

  Actual Average Record
Temperature  
Mean Temperature 74 °F -  
Max Temperature 79 °F 80 °F 86 °F (2002)
Min Temperature 70 °F 73 °F 64 °F (2007)
Cooling Degree Days 9    
Growing Degree Days 24 (Base 50)    
Moisture  
Dew Point 65 °F    
Average Humidity 68    
Maximum Humidity 83    
Minimum Humidity 61    
Precipitation  
Precipitation 0.00 in - - ()
Sea Level Pressure  
Sea Level Pressure 29.97 in    
Wind  
Wind Speed 10 mph ()    
Max Wind Speed 17 mph    
Max Gust Speed -    
Visibility 6.6 miles    
Events      
Averages and records for this station are not official NWS values.
T = Trace of Precipitation, MM = Missing Value Source: Averaged Metar Reports

Daily Weather History Graph

Daily Weather History Graph

Search for Another Location

Airport or City:

Trip Planner

Search our weather history database for the weather conditions in past years. The results will help you decide how hot, cold, wet, or windy it might be!

Date:

Astronomy

May. 08, 2013 Rise Set
Actual Time 5:58 AM JST 7:12 PM JST
Civil Twilight 5:34 AM JST 7:36 PM JST
Nautical Twilight 5:05 AM JST 8:05 PM JST
Astronomical Twilight 4:36 AM JST 8:35 PM JST
Moon 4:35 AM JST (5/8) 5:43 PM JST (5/8)
Length of Visible Light 14h 01m
Length of Day
13h 13m
Waning Crescent, 3% of the Moon is Illuminated
May 8
Waning Crescent
May 10
New
May 18
First Quarter
May 25
Full
Jun 1
Last Quarter

Hourly Weather History & Observations

Time (JST) Temp. Dew Point Humidity Pressure Visibility Wind Dir Wind Speed Gust Speed Precip Events Conditions
12:00 AM 72 °F 65 °F 74% 29.99 in - East 8.1 mph - -  
3:00 AM 71 °F 65 °F 74% 29.96 in 6 mi ESE 5.8 mph - -   Scattered Clouds
6:30 AM 69.8 °F 64.4 °F 83% 29.95 in 6.2 mi East 8.1 mph - N/A   Mostly Cloudy
7:00 AM 71.6 °F 64.4 °F 78% 29.98 in 6.2 mi East 9.2 mph - N/A   Mostly Cloudy
8:00 AM 73.4 °F 64.4 °F 73% 29.98 in 6.2 mi East 12.7 mph - N/A   Scattered Clouds
9:00 AM 75 °F 66 °F 67% 30.01 in 6 mi East 13.8 mph - -   Scattered Clouds
9:00 AM 75.2 °F 64.4 °F 69% 29.98 in 6.2 mi East 15.0 mph - N/A   Scattered Clouds
10:00 AM 75.2 °F 64.4 °F 69% 29.98 in 6.2 mi East 17.3 mph - N/A   Scattered Clouds
11:00 AM 77.0 °F 62.6 °F 61% 29.98 in 6.2 mi East 17.3 mph - N/A   Scattered Clouds
12:00 PM 78 °F 67 °F 61% 30.01 in 6 mi East 11.5 mph - -   Mostly Cloudy
12:00 PM 77.0 °F 62.6 °F 61% 29.98 in 6.2 mi East 15.0 mph - N/A   Scattered Clouds
1:00 PM 77.0 °F 62.6 °F 61% 29.98 in 6.2 mi East 15.0 mph - N/A   Scattered Clouds
2:00 PM 77.0 °F 64.4 °F 65% 29.95 in 6.2 mi East 16.1 mph - N/A   Scattered Clouds
3:00 PM 77 °F 66 °F 61% 29.96 in 9 mi East 13.8 mph - -   Mostly Cloudy
3:00 PM 78.8 °F 64.4 °F 61% 29.95 in 6.2 mi East 16.1 mph - N/A   Partly Cloudy
4:00 PM 77.0 °F 62.6 °F 61% 29.95 in 6.2 mi ESE 15.0 mph - N/A   Scattered Clouds
5:00 PM 75.2 °F 62.6 °F 65% 29.92 in 6.2 mi ESE 13.8 mph - N/A   Partly Cloudy
6:00 PM 76 °F 66 °F 65% 29.96 in 9 mi ESE 10.4 mph - -   Scattered Clouds
6:00 PM 75.2 °F 64.4 °F 69% 29.92 in 6.2 mi ESE 10.4 mph - N/A   Partly Cloudy
7:00 PM 73.4 °F 64.4 °F 73% 29.95 in 6.2 mi ESE 10.4 mph - N/A   Partly Cloudy
8:00 PM 73.4 °F 64.4 °F 73% 29.95 in 6.2 mi ESE 9.2 mph - N/A   Partly Cloudy
9:00 PM 73 °F 67 °F 75% 29.98 in 9 mi ESE 6.9 mph - -   Scattered Clouds